Location: St. Andrews
(45.0670°N, 67.0330°W)
Time: 22:42:57
(UTC-04:00)

Amateur Radio Satellites - All Passes

Search period start: 26 November 2014 22:12
Search period end: 27 November 2014 22:12
Location: St. Andrews, 45.0670°N, 67.0330°W

Satellite Date Start Highest point End Downlink Frequencies (MHz)
Time Altitude Azimuth
ZACube-1 26 Nov 22:12:46 22:16:53 55° 260° (W) 22:20:59 437.345
POLYITAN 1 26 Nov 22:12:58 22:14:23 11° 89° (E) 22:15:47 437.675
QB50P2 26 Nov 22:14:28 22:16:06 12° 89° (E) 22:17:44 145.880/145.840
VELOX 1 26 Nov 22:16:22 22:20:50 79° 257° (WSW) 22:25:20 145.980
ESTCUBE 1 26 Nov 22:17:58 22:22:16 43° 70° (ENE) 22:26:36 437.505/2401.250
DUCHIFAT 1 26 Nov 22:19:36 22:21:41 13° 90° (E) 22:23:45 145.980
AIST 2 26 Nov 22:19:53 22:23:33 27° 317° (NW) 22:27:15 435.215
TISAT 1 26 Nov 22:27:38 22:30:01 15° 61° (ENE) 22:32:24 437.305
GOMX 1 26 Nov 22:31:30 22:32:06 10° 271° (W) 22:32:43 467.674
NANOSAT C BR1 26 Nov 22:38:12 22:41:28 21° 94° (E) 22:44:42 145.865
SPROUT 26 Nov 22:39:30 22:42:18 17° 63° (ENE) 22:45:06 437.525
AISAT 26 Nov 22:43:31 22:47:44 40° 262° (W) 22:51:59 437.250
UKube-1 26 Nov 22:45:32 22:47:47 14° 270° (W) 22:50:03 .
QB50P1 26 Nov 22:47:57 22:51:34 27° 95° (E) 22:55:10 145.935-145.965
FUNcube-1 26 Nov 22:48:32 22:51:55 24° 266° (W) 22:55:18 145.935
CUBEBUG 1 26 Nov 22:52:57 22:57:25 88° 257° (WSW) 23:01:53 437.445
BUGSAT 1 26 Nov 22:54:27 22:57:53 25° 95° (E) 23:01:15 437.445
TIGRISAT 26 Nov 22:55:32 22:59:49 47° 99° (E) 23:04:11 435.000
UNISAT 6 26 Nov 23:09:35 23:14:01 68° 102° (ESE) 23:18:33 437.425
50 SAT 26 Nov 23:09:47 23:13:08 25° 265° (W) 23:16:30 437.505
POPSAT HIP 1 26 Nov 23:12:32 23:16:39 49° 100° (E) 23:20:44 437.405
UWE-3 26 Nov 23:20:06 23:20:35 10° 272° (W) 23:21:04 435.000/436.395/437.385
HUMSAT D 26 Nov 23:27:56 23:30:17 15° 269° (W) 23:32:38 437.325/437.525
CUSAT 1 26 Nov 23:33:10 23:37:36 47° 77° (ENE) 23:43:29 437.405
MaSat-1 26 Nov 23:34:58 23:35:42 11° 51° (NE) 23:36:27 437.345
ITUPSAT 1 26 Nov 23:37:18 23:39:57 15° 59° (ENE) 23:42:35 437.325
ANTELSAT 26 Nov 23:38:31 23:42:55 61° 287° (WNW) 23:47:24 437.575/2403.000
ISS 26 Nov 23:44:50 23:48:01 50° 144° (SE) 23:51:13 145.825
POLYITAN 1 26 Nov 23:46:36 23:50:49 70° 286° (WNW) 23:55:01 437.675
SWISSCUBE 26 Nov 23:47:00 23:50:23 20° 62° (ENE) 23:53:48 437.505
QB50P2 26 Nov 23:48:17 23:52:29 67° 286° (WNW) 23:56:41 145.880/145.840
DUCHIFAT 1 26 Nov 23:53:48 23:57:57 59° 287° (WNW) 00:02:05 145.980
ESTCUBE 1 26 Nov 23:55:53 23:59:20 21° 267° (W) 00:02:49 437.505/2401.250
AUBIESAT-1 26 Nov 23:55:54 23:59:42 35° 62° (ENE) 00:03:50 437.475
TISAT 1 27 Nov 00:01:10 00:05:23 61° 259° (WSW) 00:09:38 437.305
M-CUBED/EXP-1 PRIME 27 Nov 00:01:35 00:05:32 43° 64° (ENE) 00:09:49 437.505
DANDE 27 Nov 00:02:46 00:07:10 73° 79° (E) 00:13:12 436.750
RS-15 27 Nov 00:03:50 00:14:44 55° 43° (NE) 00:26:04 29.354- 29.394
NANOSAT C BR1 27 Nov 00:13:35 00:17:28 36° 291° (WNW) 00:21:20 145.865
SPROUT 27 Nov 00:13:47 00:18:00 52° 260° (W) 00:22:14 437.525
BEESAT 27 Nov 00:16:48 00:21:04 33° 67° (ENE) 00:25:21 436.000
QB50P1 27 Nov 00:23:47 00:27:27 29° 292° (WNW) 00:31:06 145.935-145.965
BUGSAT 1 27 Nov 00:29:50 00:33:23 29° 292° (WNW) 00:36:53 437.445
KKS-1 27 Nov 00:32:51 00:33:35 10° 57° (ENE) 00:34:18 437.445
TIGRISAT 27 Nov 00:33:07 00:36:17 20° 296° (WNW) 00:39:29 435.000
UNISAT 6 27 Nov 00:47:54 00:50:20 15° 299° (WNW) 00:52:47 437.425
POPSAT HIP 1 27 Nov 00:49:26 00:52:12 17° 297° (WNW) 00:54:58 437.405
MaSat-1 27 Nov 01:08:23 01:10:14 21° 248° (WSW) 01:12:07 437.345
ITUPSAT 1 27 Nov 01:12:24 01:17:13 78° 256° (WSW) 01:22:04 437.325
CUSAT 1 27 Nov 01:16:56 01:20:40 23° 267° (W) 01:25:14 437.405
YUBILEINY 27 Nov 01:19:20 01:25:39 23° 78° (ENE) 01:31:57 435.215
ISS 27 Nov 01:21:41 01:24:46 36° 343° (NNW) 01:27:51 145.825
ITAMSAT 1 27 Nov 01:22:44 01:24:23 11° 87° (E) 01:26:02 435.822/435.867
SWISSCUBE 27 Nov 01:23:08 01:27:51 56° 259° (W) 01:32:36 437.505
STARS 27 Nov 01:23:37 01:27:02 22° 64° (ENE) 01:30:26 437.465
AUBIESAT-1 27 Nov 01:31:20 01:34:47 25° 262° (W) 01:38:31 437.475
M-CUBED/EXP-1 PRIME 27 Nov 01:37:43 01:40:50 21° 264° (W) 01:44:09 437.505
DANDE 27 Nov 01:48:08 01:50:33 14° 269° (W) 01:53:15 436.750
BEESAT 27 Nov 01:54:40 01:58:54 31° 264° (W) 02:03:09 436.000
Gurwin Techsat 1B 27 Nov 01:59:07 02:02:17 16° 89° (E) 02:05:26 435.225
Oscar 19 27 Nov 02:04:07 02:09:18 72° 103° (ESE) 02:14:27 437.125/150
KKS-1 27 Nov 02:05:01 02:09:28 83° 75° (ENE) 02:13:57 437.445
RS-15 27 Nov 02:16:29 02:27:12 54° 247° (WSW) 02:38:23 29.354- 29.394
BEESAT 2 27 Nov 02:46:06 02:46:18 10° 27° (NNE) 02:46:31 435.950
PCSat 27 Nov 02:57:26 03:01:05 18° 36° (NE) 03:04:44 145.827
STARS 27 Nov 02:59:09 03:03:18 39° 262° (W) 03:07:27 437.465
ISS 27 Nov 02:59:12 03:02:00 25° 3° (N) 03:04:49 145.825
ITAMSAT 1 27 Nov 02:59:24 03:04:38 88° 105° (ESE) 03:09:48 435.822/435.867
HORYU 2 27 Nov 03:12:18 03:16:18 30° 96° (E) 03:20:16 437.375
YUBILEINY 27 Nov 03:12:33 03:21:22 82° 279° (W) 03:30:13 435.215
MOZHAYETS 4 27 Nov 03:18:34 03:21:25 16° 61° (ENE) 03:24:17
AIST 2 27 Nov 03:23:52 03:25:29 12° 29° (NNE) 03:27:06 435.215
Gurwin Techsat 1B 27 Nov 03:37:30 03:42:49 73° 287° (WNW) 03:48:05 435.225
Oscar 19 27 Nov 03:44:44 03:48:04 18° 301° (WNW) 03:51:24 437.125/150
KKS-1 27 Nov 03:45:56 03:46:42 10° 272° (W) 03:47:29 437.445
BEESAT 3 27 Nov 04:05:24 04:09:17 34° 46° (NE) 04:13:06 437.485
SO-50 27 Nov 04:05:43 04:10:15 81° 124° (SE) 04:14:56 436.795
PRISM 27 Nov 04:10:19 04:10:55 10° 58° (ENE) 04:11:31 437.425
AO-7 27 Nov 04:18:42 04:26:41 46° 100° (E) 04:34:37 29.400- 29.500
BEESAT 2 27 Nov 04:21:39 04:25:42 43° 48° (NE) 04:29:42 435.950
ISS 27 Nov 04:35:55 04:39:09 50° 23° (NNE) 04:42:22 145.825
PCSat 27 Nov 04:39:57 04:45:25 79° 57° (ENE) 04:50:50 145.827
ITAMSAT 1 27 Nov 04:40:39 04:43:24 15° 303° (WNW) 04:46:08 435.822/435.867
JAS-2 27 Nov 04:42:55 04:48:36 26° 89° (E) 04:53:44 435.910
HORYU 2 27 Nov 04:49:02 04:52:55 29° 293° (WNW) 04:56:48 437.375
MOZHAYETS 4 27 Nov 04:53:36 04:58:09 63° 259° (W) 05:02:46
AIST 2 27 Nov 05:00:52 05:05:07 53° 50° (NE) 05:09:18 435.215
CUBESAT XI-V 27 Nov 05:03:07 05:05:54 16° 61° (ENE) 05:08:41 437.345
YUBILEINY 27 Nov 05:13:42 05:19:41 20° 302° (WNW) 05:25:42 435.215
O/OREOS (USA 219) 27 Nov 05:16:02 05:19:23 21° 102° (ESE) 05:22:44 437.305
Gurwin Techsat 1B 27 Nov 05:19:59 05:21:51 12° 306° (NW) 05:23:43 435.225
PRISM 27 Nov 05:41:33 05:45:46 88° 76° (ENE) 05:50:02 437.425
BEESAT 3 27 Nov 05:43:48 05:47:26 29° 245° (WSW) 05:51:01 437.485
Cubesat XI-IV 27 Nov 05:47:52 05:51:45 20° 92° (E) 05:55:36 437.490
SO-50 27 Nov 05:48:01 05:51:24 20° 325° (NW) 05:54:51 436.795
STRAND 1 27 Nov 05:58:12 06:03:10 51° 70° (ENE) 06:08:09 437.568
BEESAT 2 27 Nov 06:00:28 06:03:45 22° 247° (WSW) 06:07:00 435.950
AIST 1 27 Nov 06:02:11 06:05:41 23° 71° (ENE) 06:09:08
AO-7 27 Nov 06:11:38 06:19:28 47° 300° (WNW) 06:27:17 29.400- 29.500
ISS 27 Nov 06:12:47 06:15:40 28° 221° (SW) 06:18:33 145.825
PCSat 27 Nov 06:24:53 06:28:08 16° 256° (WSW) 06:31:23 145.827
JAS-2 27 Nov 06:27:11 06:34:15 62° 290° (WNW) 06:40:28 435.910
CUTE-I 27 Nov 06:28:07 06:33:12 44° 99° (E) 06:38:15 437.470
CUBESAT XI-V 27 Nov 06:38:05 06:42:48 70° 258° (WSW) 06:47:32 437.345
AIST 2 27 Nov 06:40:22 06:43:22 19° 249° (WSW) 06:46:21 435.215
O/OREOS (USA 219) 27 Nov 06:54:13 06:58:30 43° 300° (WNW) 07:02:47 437.305
GONETS M04 27 Nov 07:09:07 07:15:51 25° 79° (E) 07:22:36
Cubesat XI-IV 27 Nov 07:26:59 07:32:13 58° 289° (WNW) 07:37:25 437.490
STRAND 1 27 Nov 07:38:43 07:42:38 22° 267° (W) 07:46:35 437.568
AIST 1 27 Nov 07:39:28 07:43:27 35° 269° (W) 07:47:22
AO-7 27 Nov 08:06:58 08:10:11 13° 323° (NW) 08:13:24 29.400- 29.500
CUTE-I 27 Nov 08:08:37 08:13:03 28° 297° (WNW) 08:17:28 437.470
JAS-2 27 Nov 08:14:23 08:17:43 14° 312° (NW) 08:20:54 435.910
CUTE 1.7 + AOD 2 27 Nov 08:23:21 08:25:45 15° 90° (E) 08:28:07 437.475
GOMX 1 27 Nov 08:49:22 08:52:18 18° 93° (E) 08:55:17 467.674
SEEDS 27 Nov 08:53:47 08:57:24 26° 95° (E) 09:01:00 437.485
GONETS M04 27 Nov 09:02:56 09:11:44 76° 280° (W) 09:20:39
Oscar 11 27 Nov 09:04:47 09:07:00 14° 90° (E) 09:09:13 145.826/435.025
ANTELSAT 27 Nov 09:05:05 09:07:47 17° 62° (ENE) 09:10:31 437.575/2403.000
AAUSAT CUBESAT 2 27 Nov 09:07:58 09:11:37 28° 95° (E) 09:15:16 437.432
DELFI C3 27 Nov 09:08:17 09:09:52 12° 89° (E) 09:11:27 145.870
HO-68 27 Nov 09:08:19 09:15:16 50° 100° (E) 09:22:09 435.675
POLYITAN 1 27 Nov 09:08:43 09:10:41 13° 60° (ENE) 09:12:40 437.675
QB50P2 27 Nov 09:10:04 09:12:09 14° 61° (ENE) 09:14:15 145.880/145.840
DUCHIFAT 1 27 Nov 09:14:54 09:17:17 15° 62° (ENE) 09:19:39 145.980
CANX-2 27 Nov 09:23:15 09:27:32 68° 101° (ESE) 09:31:49 2200.000
BRITE-PL 27 Nov 09:23:46 09:27:53 58° 101° (E) 09:32:01 437.365/2234.400
COMPASS 1 27 Nov 09:23:53 09:27:59 46° 99° (E) 09:32:05 437.405
UWE-3 27 Nov 09:29:04 09:31:00 13° 90° (E) 09:32:56 435.000/436.395/437.385
DX 1 27 Nov 09:30:30 09:33:52 22° 94° (E) 09:37:12 434.975-435.025
CUBEBUG 2 27 Nov 09:31:02 09:33:37 16° 91° (E) 09:36:14 437.445
NANOSAT C BR1 27 Nov 09:33:27 09:36:45 22° 65° (ENE) 09:40:03 145.865
DOVE 4 27 Nov 09:38:21 09:42:23 45° 99° (E) 09:46:31 437.250
QB50P1 27 Nov 09:43:10 09:46:47 28° 67° (ENE) 09:50:24 145.935-145.965
BUGSAT 1 27 Nov 09:46:53 09:50:24 26° 67° (ENE) 09:53:53 437.445
TIGRISAT 27 Nov 09:56:40 10:00:48 52° 72° (ENE) 10:04:57 435.000
CUTE 1.7 + AOD 2 27 Nov 09:57:49 10:02:02 56° 287° (WNW) 10:06:15 437.475
ZACube-1 27 Nov 09:59:58 10:03:23 23° 94° (E) 10:06:50 437.345
CINEMA 3 27 Nov 10:04:22 10:08:31 54° 100° (E) 10:12:46 145.822/145.860
VELOX 1 27 Nov 10:06:30 10:09:26 17° 92° (E) 10:12:21 145.980
POPSAT HIP 1 27 Nov 10:07:34 10:11:40 49° 72° (ENE) 10:15:47 437.405
UNISAT 6 27 Nov 10:10:58 10:15:13 77° 75° (ENE) 10:19:30 437.425
GOMX 1 27 Nov 10:26:45 10:30:39 40° 289° (WNW) 10:34:37 467.674
UKube-1 27 Nov 10:28:57 10:33:19 86° 104° (ESE) 10:37:39 .
SEEDS 27 Nov 10:29:29 10:33:15 31° 292° (WNW) 10:37:00 437.485
AISAT 27 Nov 10:32:50 10:36:50 32° 97° (E) 10:40:47 437.250
FUNcube-1 27 Nov 10:34:07 10:38:16 52° 100° (E) 10:42:29 145.935
Oscar 11 27 Nov 10:39:17 10:43:35 61° 287° (WNW) 10:47:52 145.826/435.025
ANTELSAT 27 Nov 10:40:04 10:44:13 52° 260° (W) 10:48:25 437.575/2403.000
DELFI C3 27 Nov 10:41:30 10:45:37 65° 286° (WNW) 10:49:42 145.870
CUBEBUG 1 27 Nov 10:41:42 10:44:13 15° 90° (E) 10:46:43 437.445
POLYITAN 1 27 Nov 10:41:52 10:46:06 71° 258° (WSW) 10:50:22 437.675
QB50P2 27 Nov 10:43:19 10:47:33 68° 258° (WSW) 10:51:49 145.880/145.840
AAUSAT CUBESAT 2 27 Nov 10:43:37 10:47:16 29° 292° (WNW) 10:50:55 437.432
50 SAT 27 Nov 10:48:06 10:51:54 37° 98° (E) 10:55:43 437.505
DUCHIFAT 1 27 Nov 10:48:29 10:52:42 61° 259° (W) 10:56:54 145.980
SO-50 27 Nov 10:55:24 10:59:19 24° 38° (NE) 11:03:16 436.795
HO-68 27 Nov 10:56:22 11:02:47 37° 299° (WNW) 11:09:10 435.675
COMPASS 1 27 Nov 11:00:28 11:03:24 19° 296° (WNW) 11:06:21 437.405
CANX-2 27 Nov 11:00:48 11:02:57 14° 299° (WNW) 11:05:07 2200.000
UWE-3 27 Nov 11:03:45 11:07:57 63° 286° (WNW) 11:12:14 435.000/436.395/437.385
BRITE-PL 27 Nov 11:03:51 11:05:59 14° 298° (WNW) 11:08:07 437.365/2234.400
GONETS M04 27 Nov 11:04:42 11:10:18 18° 304° (NW) 11:15:57
DX 1 27 Nov 11:06:12 11:10:15 38° 291° (WNW) 11:14:15 434.975-435.025
CUBEBUG 2 27 Nov 11:06:30 11:10:37 51° 287° (WNW) 11:14:50 437.445
HUMSAT D 27 Nov 11:08:24 11:12:36 77° 103° (ESE) 11:16:48 437.325/437.525
NANOSAT C BR1 27 Nov 11:08:30 11:12:27 37° 262° (W) 11:16:24 145.865
DOVE 4 27 Nov 11:17:05 11:19:53 18° 296° (WNW) 11:22:45 437.250
QB50P1 27 Nov 11:18:55 11:22:37 29° 264° (W) 11:26:21 145.935-145.965
BUGSAT 1 27 Nov 11:21:59 11:25:47 32° 263° (W) 11:29:35 437.445
YUBILEINY 27 Nov 11:26:29 11:29:48 12° 50° (NE) 11:33:05 435.215
TIGRISAT 27 Nov 11:35:27 11:37:54 15° 269° (W) 11:40:23 435.000
ZACube-1 27 Nov 11:36:00 11:39:50 34° 291° (WNW) 11:43:44 437.345
VELOX 1 27 Nov 11:42:02 11:46:20 50° 289° (WNW) 11:50:35 145.980
CINEMA 3 27 Nov 11:42:47 11:45:22 16° 297° (WNW) 11:48:00 145.822/145.860
POPSAT HIP 1 27 Nov 11:45:10 11:47:52 16° 269° (W) 11:50:34 437.405
TISAT 1 27 Nov 11:45:21 11:48:17 18° 92° (E) 11:51:11 437.305
ESTCUBE 1 27 Nov 11:45:29 11:50:02 72° 102° (ESE) 11:54:33 437.505/2401.250
Oscar 19 27 Nov 11:45:57 11:49:23 19° 60° (ENE) 11:52:50 437.125/150
UNISAT 6 27 Nov 11:51:58 11:52:35 10° 272° (W) 11:53:12 437.425
SPROUT 27 Nov 11:59:15 12:02:41 23° 94° (E) 12:06:05 437.525
UKube-1 27 Nov 12:07:25 12:08:49 11° 302° (WNW) 12:10:13 .
AISAT 27 Nov 12:09:39 12:13:22 27° 294° (WNW) 12:17:04 437.250
FUNcube-1 27 Nov 12:11:36 12:14:16 17° 297° (WNW) 12:16:58 145.935
CUBEBUG 1 27 Nov 12:16:41 12:20:58 56° 288° (WNW) 12:25:12 437.445
50 SAT 27 Nov 12:23:59 12:27:00 20° 295° (WNW) 12:30:02 437.505
SO-50 27 Nov 12:35:28 12:40:19 67° 238° (WSW) 12:45:11 436.795
ITAMSAT 1 27 Nov 12:41:29 12:45:34 24° 62° (ENE) 12:49:39 435.822/435.867
HUMSAT D 27 Nov 12:46:21 12:47:50 12° 300° (WNW) 12:49:19 437.325/437.525
CUSAT 1 27 Nov 12:50:15 12:52:37 30° 96° (E) 12:55:00 437.405
AUBIESAT-1 27 Nov 13:11:36 13:15:36 24° 98° (E) 13:19:30 437.475
ITUPSAT 1 27 Nov 13:11:52 13:15:44 24° 94° (E) 13:19:34 437.325
M-CUBED/EXP-1 PRIME 27 Nov 13:17:40 13:22:01 30° 100° (E) 13:26:15 437.505
TISAT 1 27 Nov 13:20:20 13:24:20 43° 289° (WNW) 13:28:18 437.305
YUBILEINY 27 Nov 13:20:25 13:28:59 56° 75° (ENE) 13:37:27 435.215
Gurwin Techsat 1B 27 Nov 13:21:40 13:26:16 31° 65° (ENE) 13:30:54 435.225
SWISSCUBE 27 Nov 13:21:54 13:26:13 32° 96° (E) 13:30:29 437.505
DANDE 27 Nov 13:22:27 13:25:08 87° 100° (E) 13:27:45 436.750
Oscar 19 27 Nov 13:23:08 13:28:12 66° 258° (WSW) 13:33:20 437.125/150
ESTCUBE 1 27 Nov 13:23:56 13:26:20 14° 300° (WNW) 13:28:44 437.505/2401.250
AO-7 27 Nov 13:31:00 13:36:25 20° 45° (NE) 13:41:50 29.400- 29.500
SPROUT 27 Nov 13:34:58 13:38:52 35° 291° (WNW) 13:42:44 437.525
BEESAT 27 Nov 13:52:22 13:57:08 59° 101° (E) 14:01:50 436.000
KKS-1 27 Nov 13:56:01 13:58:20 14° 90° (E) 14:00:38 437.445
HORYU 2 27 Nov 14:12:56 14:16:58 36° 68° (ENE) 14:21:03 437.375
ITAMSAT 1 27 Nov 14:19:40 14:24:44 51° 260° (W) 14:29:49 435.822/435.867
RS-15 27 Nov 14:33:59 14:41:32 22° 100° (E) 14:49:02 29.354- 29.394
PHONESAT 2.4 27 Nov 14:34:29 14:37:09 19° 156° (SSE) 14:39:50 2401.200-2431.200
MaSat-1 27 Nov 14:38:00 14:40:18 21° 112° (ESE) 14:42:27 437.345
VERMONT LUNAR 27 Nov 14:38:50 14:41:47 24° 160° (SSE) 14:44:44 437.305
AUBIESAT-1 27 Nov 14:46:02 14:50:45 46° 295° (WNW) 14:55:20 437.475
STARS 27 Nov 14:47:17 14:51:13 31° 97° (E) 14:55:08 437.465
ITUPSAT 1 27 Nov 14:49:15 14:53:47 42° 291° (WNW) 14:58:17 437.325
M-CUBED/EXP-1 PRIME 27 Nov 14:52:31 14:57:04 38° 297° (WNW) 15:01:33 437.505
JAS-2 27 Nov 14:57:12 15:02:24 20° 53° (NE) 15:07:35 435.910
SWISSCUBE 27 Nov 14:59:49 15:04:02 31° 294° (WNW) 15:08:13 437.505
Gurwin Techsat 1B 27 Nov 15:01:11 15:06:07 39° 263° (W) 15:11:06 435.225
YUBILEINY 27 Nov 15:17:49 15:25:23 35° 276° (W) 15:32:54 435.215
AO-7 27 Nov 15:19:35 15:27:49 72° 67° (ENE) 15:36:06 29.400- 29.500
O/OREOS (USA 219) 27 Nov 15:22:42 15:27:07 57° 63° (ENE) 15:31:31 437.305
KKS-1 27 Nov 15:31:00 15:35:24 63° 287° (WNW) 15:39:46 437.445
BEESAT 27 Nov 15:31:15 15:34:32 19° 299° (WNW) 15:37:48 436.000
HORYU 2 27 Nov 15:50:11 15:53:45 24° 266° (W) 15:57:21 437.375
PHONESAT 2.4 27 Nov 16:11:57 16:15:25 38° 173° (S) 16:18:54 2401.200-2431.200
MaSat-1 27 Nov 16:12:52 16:14:45 16° 306° (NW) 16:16:32 437.345
CUTE-I 27 Nov 16:15:18 16:18:03 14° 56° (NE) 16:20:49 437.470
VERMONT LUNAR 27 Nov 16:16:24 16:19:49 40° 177° (S) 16:23:14 437.305
STARS 27 Nov 16:23:55 16:27:37 27° 294° (WNW) 16:31:19 437.465
JAS-2 27 Nov 16:38:31 16:46:13 77° 72° (ENE) 16:54:04 435.910
RS-15 27 Nov 16:41:11 16:52:09 84° 122° (ESE) 17:03:09 29.354- 29.394
MOZHAYETS 4 27 Nov 16:47:18 16:51:16 27° 94° (E) 16:55:13
O/OREOS (USA 219) 27 Nov 17:03:23 17:06:02 16° 260° (W) 17:08:41 437.305
Cubesat XI-IV 27 Nov 17:11:31 17:16:31 41° 67° (ENE) 17:21:31 437.490
AO-7 27 Nov 17:14:30 17:21:16 27° 267° (W) 17:28:07 29.400- 29.500
GONETS M04 27 Nov 17:16:13 17:20:36 14° 52° (NE) 17:24:56
PRISM 27 Nov 17:25:22 17:26:38 11° 89° (E) 17:27:53 437.425
PHONESAT 2.4 27 Nov 17:50:26 17:53:52 36° 190° (S) 17:57:18 2401.200-2431.200
CUTE-I 27 Nov 17:51:59 17:57:21 87° 75° (ENE) 18:02:44 437.470
VERMONT LUNAR 27 Nov 17:54:42 17:57:55 30° 194° (SSW) 18:01:08 437.305
HO-68 27 Nov 17:58:05 17:59:36 11° 42° (NE) 18:01:07 435.675
STRAND 1 27 Nov 18:08:19 18:11:03 14° 89° (E) 18:13:45 437.568
MOZHAYETS 4 27 Nov 18:24:19 18:28:32 35° 292° (WNW) 18:32:44
JAS-2 27 Nov 18:25:46 18:31:53 25° 271° (W) 18:38:07 435.910
CUBESAT XI-V 27 Nov 18:33:35 18:37:29 26° 94° (E) 18:41:21 437.345
AIST 1 27 Nov 18:36:01 18:37:50 12° 83° (E) 18:39:39
Cubesat XI-IV 27 Nov 18:52:04 18:56:42 29° 265° (W) 19:01:21 437.490
RS-15 27 Nov 18:55:51 19:05:49 38° 330° (NNW) 19:15:58 29.354- 29.394
PRISM 27 Nov 18:58:26 19:02:41 72° 286° (WNW) 19:06:53 437.425
BRITE-PL 27 Nov 19:01:50 19:03:19 11° 60° (ENE) 19:04:47 437.365/2234.400
GONETS M04 27 Nov 19:10:50 19:19:37 62° 77° (ENE) 19:28:16
CUTE 1.7 + AOD 2 27 Nov 19:19:09 19:21:28 15° 62° (ENE) 19:23:48 437.475
PCSat 27 Nov 19:23:36 19:28:46 48° 114° (ESE) 19:33:58 145.827
PHONESAT 2.4 27 Nov 19:29:43 19:32:05 16° 206° (SSW) 19:34:27 2401.200-2431.200
VERMONT LUNAR 27 Nov 19:34:31 19:35:43 11° 210° (SSW) 19:36:56 437.305
CUTE-I 27 Nov 19:35:41 19:38:07 13° 272° (W) 19:40:33 437.470
HO-68 27 Nov 19:38:48 19:45:34 47° 64° (ENE) 19:52:21 435.675
BEESAT 3 27 Nov 19:40:22 19:44:02 32° 116° (ESE) 19:47:45 437.485
STRAND 1 27 Nov 19:45:41 19:50:49 75° 287° (WNW) 19:55:53 437.568
SEEDS 27 Nov 19:48:35 19:51:59 25° 66° (ENE) 19:55:25 437.485
UKube-1 27 Nov 19:53:16 19:54:47 12° 58° (ENE) 19:56:18 .
BEESAT 2 27 Nov 19:57:01 20:00:55 43° 119° (ESE) 20:04:54 435.950
GOMX 1 27 Nov 19:59:27 20:03:23 28° 68° (ENE) 20:07:09 467.674
DELFI C3 27 Nov 20:00:15 20:01:27 11° 60° (ENE) 20:02:40 145.870
AAUSAT CUBESAT 2 27 Nov 20:01:41 20:05:07 25° 67° (ENE) 20:08:34 437.432
Oscar 11 27 Nov 20:02:05 20:04:31 15° 61° (ENE) 20:06:58 145.826/435.025
AIST 1 27 Nov 20:10:31 20:14:54 66° 280° (W) 20:19:19
CUBESAT XI-V 27 Nov 20:10:44 20:15:01 36° 291° (WNW) 20:19:14 437.345
COMPASS 1 27 Nov 20:17:42 20:21:36 41° 71° (ENE) 20:25:34 437.405
CANX-2 27 Nov 20:18:20 20:22:29 62° 74° (ENE) 20:26:41 2200.000
DX 1 27 Nov 20:28:14 20:31:51 26° 66° (ENE) 20:35:28 434.975-435.025
UWE-3 27 Nov 20:29:03 20:31:18 14° 62° (ENE) 20:33:33 435.000/436.395/437.385
CUBEBUG 2 27 Nov 20:32:04 20:34:52 18° 64° (ENE) 20:37:39 437.445
BRITE-PL 27 Nov 20:36:19 20:41:16 88° 76° (ENE) 20:45:50 437.365/2234.400
AIST 2 27 Nov 20:39:21 20:43:31 59° 121° (ESE) 20:47:45 435.215
DOVE 4 27 Nov 20:46:09 20:50:37 61° 74° (ENE) 20:54:52 437.250
CUTE 1.7 + AOD 2 27 Nov 20:52:46 20:56:56 61° 259° (W) 21:01:09 437.475
ZACube-1 27 Nov 20:58:39 21:02:01 24° 67° (ENE) 21:05:22 437.345
VELOX 1 27 Nov 21:06:30 21:09:54 22° 64° (ENE) 21:13:17 145.980
PCSat 27 Nov 21:07:34 21:12:23 31° 314° (NW) 21:17:13 145.827
CINEMA 3 27 Nov 21:08:26 21:12:43 64° 74° (ENE) 21:16:54 145.822/145.860
GONETS M04 27 Nov 21:08:26 21:15:51 32° 278° (W) 21:23:13
RS-15 27 Nov 21:13:20 21:22:17 27° 4° (N) 21:31:27 29.354- 29.394
ESTCUBE 1 27 Nov 21:14:18 21:15:31 11° 57° (ENE) 21:16:45 437.505/2401.250
BEESAT 3 27 Nov 21:18:33 21:22:15 31° 315° (NW) 21:26:01 437.485
SEEDS 27 Nov 21:23:56 21:27:42 32° 264° (W) 21:31:30 437.485
UKube-1 27 Nov 21:25:56 21:30:17 85° 256° (WSW) 21:34:41 .
HO-68 27 Nov 21:26:45 21:33:21 39° 263° (W) 21:40:01 435.675
STRAND 1 27 Nov 21:27:24 21:29:07 12° 305° (NW) 21:30:50 437.568
DELFI C3 27 Nov 21:32:05 21:36:09 78° 258° (WSW) 21:40:16 145.870
FUNcube-1 27 Nov 21:32:20 21:36:24 53° 73° (ENE) 21:40:27 145.935
AISAT 27 Nov 21:33:02 21:37:11 39° 69° (ENE) 21:41:20 437.250
BEESAT 2 27 Nov 21:35:54 21:39:23 25° 318° (NW) 21:42:55 435.950
Oscar 11 27 Nov 21:35:58 21:40:13 61° 259° (W) 21:44:30 145.826/435.025
AAUSAT CUBESAT 2 27 Nov 21:37:01 21:40:42 30° 264° (W) 21:44:25 437.432
GOMX 1 27 Nov 21:37:17 21:41:28 31° 263° (W) 21:45:26 467.674
50 SAT 27 Nov 21:39:14 21:42:49 32° 69° (ENE) 21:46:25 437.505
CUBEBUG 1 27 Nov 21:40:11 21:43:11 18° 63° (ENE) 21:46:12 437.445
COMPASS 1 27 Nov 21:54:36 21:57:33 19° 268° (W) 22:00:31 437.405
CANX-2 27 Nov 21:56:58 21:58:52 13° 271° (W) 22:00:47 2200.000
UNISAT 6 27 Nov 22:02:27 22:04:52 14° 90° (E) 22:07:18 437.425
HUMSAT D 27 Nov 22:02:44 22:06:50 71° 75° (ENE) 22:10:57 437.325/437.525
UWE-3 27 Nov 22:03:15 22:07:25 60° 259° (W) 22:11:33 435.000/436.395/437.385
DX 1 27 Nov 22:03:59 22:07:57 34° 263° (W) 22:11:57 434.975-435.025
